KE7YUP Weather Reports


Display with metric or nautical units.
time (UTC)temp
F
wind
direction
speed
MPH
gust
MPH
rain 1hr
in
rain 24hr
in
rain mn
in
humidity
%
barometer
mb
20260507092816 47 329 4.0 5.0 0.00 0.00 0.00 61 1022.9
20260507091837 48 111 1.0 2.0 0.00 0.00 0.00 60 1022.9
20260507090816 47 53 2.0 4.0 0.00 0.02 0.00 61 1022.9
20260507085816 47 350 1.0 2.0 0.00 0.06 0.00 60 1022.6
20260507084816 47 350 1.0 2.0 0.00 0.08 0.00 59 1022.8
20260507083816 47 350 1.0 3.0 0.00 0.08 0.00 57 1022.7
20260507082836 47 350 4.0 5.0 0.00 0.08 0.00 52 1022.6
20260507081816 47 350 4.0 5.0 0.00 0.08 0.00 53 1022.8
20260507080816 47 350 4.0 5.0 0.00 0.08 0.00 50 1022.7
20260507075836 46 350 5.0 6.0 0.00 0.08 0.00 51 1022.4
20260507074816 46 350 2.0 3.0 0.00 0.08 0.00 48 1022.4
20260507073816 46 350 3.0 4.0 0.00 0.08 0.00 48 1022.5
20260507072816 47 350 3.0 3.0 0.00 0.08 0.00 46 1022.6
20260507071836 47 350 2.0 2.0 0.00 0.08 0.00 47 1022.6
20260507070816 47 350 1.0 3.0 0.00 0.08 0.00 47 1022.6
20260507065816 47 350 1.0 2.0 0.00 0.08 0.00 46 1022.2
20260507064816 48 350 2.0 3.0 0.00 0.08 0.00 44 1022.4
20260507063816 49 350 1.0 2.0 0.00 0.08 0.00 42 1022.3
20260507062816 48 350 3.0 5.0 0.00 0.08 0.00 42 1022.4
20260507061816 49 331 3.0 5.0 0.00 0.08 0.00 41 1022.6
20260507060816 50 331 3.0 4.0 0.00 0.08 0.00 39 1022.6
20260507055815 51 300 2.0 3.0 0.00 0.08 0.08 38 1022.6
20260507054815 51 300 2.0 3.0 0.00 0.08 0.08 37 1022.5
20260507053815 51 300 3.0 4.0 0.00 0.08 0.08 37 1022.6
20260507052815 49 302 4.0 5.0 0.00 0.08 0.08 40 1022.1
20260507051815 48 325 5.0 6.0 0.00 0.08 0.08 41 1021.8
20260507050817 47 338 2.0 4.0 0.00 0.08 0.08 45 1021.9
20260507045817 47 269 6.0 8.0 0.00 0.08 0.08 47 1021.6
20260507044817 50 224 3.0 5.0 0.00 0.08 0.08 41 1022.3
20260507043815 53 330 4.0 6.0 0.00 0.08 0.08 33 1022.3
20260507042817 53 320 4.0 5.0 0.00 0.08 0.08 33 1022.2
20260507041817 54 321 5.0 6.0 0.00 0.08 0.08 32 1022.5
20260507040817 55 310 6.0 8.0 0.00 0.08 0.08 30 1022.6
20260507035817 54 316 5.0 8.0 0.00 0.08 0.08 32 1022.5
20260507034817 53 314 9.0 11.0 0.00 0.08 0.08 35 1022.4
20260507033817 53 314 10.0 12.0 0.00 0.08 0.08 34 1022.4
20260507032817 53 304 7.0 10.0 0.00 0.08 0.08 34 1022.1
20260507031837 53 290 0.0 1.0 0.00 0.08 0.08 33 1022.0
20260507030817 54 355 1.0 3.0 0.00 0.08 0.08 33 1022.4
20260507025816 55 0 5.0 6.0 0.00 0.08 0.08 30 1022.4
20260507024817 55 8 5.0 7.0 0.00 0.08 0.08 30 1022.3
20260507023817 54 15 3.0 4.0 0.00 0.08 0.08 31 1021.9
20260507022816 54 337 4.0 5.0 0.00 0.08 0.08 34 1021.9
20260507021837 56 327 3.0 4.0 0.00 0.08 0.08 32 1022.2
20260507020816 57 47 0.0 1.0 0.00 0.08 0.08 29 1022.6
20260507015817 58 47 1.0 3.0 0.00 0.08 0.08 27 1022.2
20260507014816 58 38 4.0 6.0 0.00 0.08 0.08 27 1022.2
20260507013816 59 63 4.0 5.0 0.00 0.08 0.08 26 1022.6
20260507012837 60 23 3.0 10.0 0.00 0.08 0.08 24 1022.6
20260507011816 60 39 6.0 10.0 0.00 0.08 0.08 25 1022.6
20260507010817 60 26 5.0 11.0 0.00 0.08 0.08 24 1022.6
20260507005836 60 7 8.0 12.0 0.00 0.08 0.08 24 1022.2
20260507004817 60 354 8.0 13.0 0.00 0.08 0.08 25 1022.2
20260507003816 60 360 11.0 15.0 0.00 0.08 0.08 24 1022.2
20260507002816 60 16 11.0 18.0 0.00 0.08 0.08 24 1022.1
20260507001816 60 11 9.0 15.0 0.00 0.08 0.08 24 1022.2
20260507000816 61 346 6.0 12.0 0.00 0.08 0.08 24 1022.2
20260506235816 61 323 12.0 16.0 0.00 0.08 0.08 24 1022.1
20260506234816 60 335 7.0 13.0 0.00 0.08 0.08 25 1022.0
20260506233816 60 42 16.0 22.0 0.00 0.08 0.08 25 1022.0
20260506232816 60 35 6.0 16.0 0.00 0.08 0.08 24 1021.5
20260506231816 60 356 11.0 17.0 0.00 0.08 0.08 26 1021.7
20260506230816 60 21 10.0 15.0 0.00 0.08 0.08 26 1021.7
20260506225816 59 45 13.0 16.0 0.00 0.08 0.08 27 1021.6
20260506224836 59 358 12.0 17.0 0.00 0.08 0.08 27 1021.7
20260506223816 59 355 13.0 20.0 0.00 0.08 0.08 27 1021.8
20260506222816 59 11 9.0 13.0 0.00 0.08 0.08 27 1021.6
20260506221816 58 330 8.0 15.0 0.00 0.08 0.08 27 1021.7
20260506220816 58 319 9.0 20.0 0.00 0.08 0.08 27 1021.7
20260506215816 58 325 13.0 20.0 0.00 0.08 0.08 28 1022.4
20260506214836 58 300 15.0 27.0 0.00 0.08 0.08 28 1022.0
20260506213816 57 345 7.0 18.0 0.00 0.08 0.08 29 1022.1
20260506212816 57 320 14.0 19.0 0.00 0.08 0.08 29 1022.0
20260506211816 57 319 17.0 24.0 0.00 0.08 0.08 28 1022.0
20260506210816 57 327 17.0 29.0 0.00 0.08 0.08 28 1022.2
20260506205816 56 350 13.0 25.0 0.00 0.08 0.08 28 1022.4
20260506204816 56 345 10.0 19.0 0.00 0.08 0.08 28 1022.4
20260506203816 57 318 13.0 24.0 0.00 0.08 0.08 29 1022.5
20260506202816 56 308 12.0 18.0 0.00 0.08 0.08 29 1023.0
20260506201816 56 4 11.0 16.0 0.00 0.08 0.08 27 1022.9
20260506200816 56 47 10.0 18.0 0.00 0.08 0.08 30 1022.8
20260506195816 55 3 14.0 26.0 0.00 0.08 0.08 28 1022.5
20260506194816 55 350 14.0 26.0 0.00 0.08 0.08 27 1022.5
20260506193816 55 294 13.0 20.0 0.00 0.08 0.08 29 1022.4
20260506192816 54 2 15.0 26.0 0.00 0.08 0.08 28 1022.4
20260506191816 54 351 11.0 19.0 0.00 0.08 0.08 27 1022.4
20260506190815 53 25 10.0 14.0 0.00 0.08 0.08 27 1021.9
20260506185816 54 15 15.0 26.0 0.00 0.08 0.08 25 1022.7
20260506184816 53 18 5.0 17.0 0.00 0.08 0.08 26 1022.4
20260506183815 52 13 7.0 23.0 0.00 0.08 0.08 25 1022.2
20260506182816 52 347 10.0 21.0 0.00 0.08 0.08 24 1022.1
20260506181816 52 8 16.0 26.0 0.00 0.08 0.08 24 1022.2
20260506180816 52 4 10.0 25.0 0.00 0.08 0.08 25 1022.0
20260506175836 52 7 18.0 27.0 0.00 0.08 0.08 25 1021.9
20260506174815 52 351 9.0 20.0 0.00 0.08 0.08 29 1021.7
20260506173816 52 37 13.0 29.0 0.00 0.08 0.08 28 1021.3
20260506172836 52 2 11.0 27.0 0.00 0.08 0.08 27 1020.9
20260506171815 51 357 12.0 27.0 0.00 0.08 0.08 27 1020.7
20260506170815 51 353 15.0 31.0 0.00 0.08 0.08 26 1020.4
20260506165836 51 12 13.0 24.0 0.00 0.08 0.08 26 1020.4
20260506164816 51 17 12.0 21.0 0.00 0.08 0.08 28 1020.1
20260506163815 51 7 17.0 28.0 0.00 0.08 0.08 28 1020.0
20260506162816 51 359 11.0 26.0 0.00 0.08 0.08 26 1020.0
20260506161815 50 27 11.0 28.0 0.00 0.08 0.08 33 1019.9
20260506160836 50 27 10.0 22.0 0.00 0.08 0.08 34 1020.0
20260506155815 50 1 7.0 21.0 0.00 0.08 0.08 34 1020.0
20260506154815 50 329 13.0 25.0 0.00 0.08 0.08 33 1019.8
20260506153815 50 355 14.0 21.0 0.00 0.08 0.08 36 1019.8
20260506152815 50 9 4.0 15.0 0.00 0.08 0.08 37 1020.0
20260506151815 50 5 8.0 12.0 0.00 0.08 0.08 45 1020.0
20260506150815 50 38 7.0 17.0 0.00 0.08 0.08 43 1019.9
20260506145815 50 6 7.0 15.0 0.00 0.08 0.08 41 1020.1
20260506144815 50 334 9.0 14.0 0.00 0.08 0.08 42 1019.6
20260506143815 49 22 9.0 16.0 0.00 0.08 0.08 42 1019.6
20260506142815 49 322 3.0 5.0 0.00 0.08 0.08 44 1020.0
20260506141815 49 7 7.0 18.0 0.00 0.08 0.08 44 1019.8
20260506140815 49 15 5.0 9.0 0.00 0.08 0.08 46 1019.8
20260506135835 48 314 3.0 8.0 0.00 0.08 0.08 49 1019.6
20260506134835 48 29 3.0 10.0 0.00 0.08 0.08 50 1019.5
20260506133815 48 311 7.0 18.0 0.00 0.08 0.08 48 1019.4
20260506132815 47 18 3.0 8.0 0.00 0.08 0.08 52 1019.2
20260506131815 47 13 4.0 8.0 0.00 0.08 0.08 52 1019.1
20260506130815 46 332 7.0 11.0 0.00 0.08 0.08 52 1018.8
20260506125817 46 333 7.0 12.0 0.00 0.08 0.08 54 1018.6
20260506124815 45 331 11.0 14.0 0.00 0.08 0.08 55 1018.2
20260506123817 45 319 6.0 12.0 0.00 0.08 0.08 56 1017.9
20260506122835 45 321 10.0 15.0 0.00 0.08 0.08 58 1017.8
20260506121817 45 333 9.0 17.0 0.00 0.08 0.08 60 1017.4
20260506120817 44 344 10.0 14.0 0.00 0.08 0.08 61 1017.0
20260506115817 44 320 8.0 18.0 0.00 0.08 0.08 62 1016.9
20260506114818 44 331 7.0 10.0 0.00 0.08 0.08 63 1016.9
20260506113817 44 2 4.0 8.0 0.00 0.08 0.08 63 1016.8
20260506112817 44 281 5.0 9.0 0.00 0.08 0.08 64 1016.3
20260506111817 44 342 3.0 10.0 0.00 0.08 0.08 65 1016.2
20260506110817 44 316 8.0 12.0 0.00 0.08 0.08 66 1015.9
20260506105817 43 273 7.0 16.0 0.00 0.08 0.08 69 1015.2
20260506104817 43 301 6.0 9.0 0.00 0.08 0.08 70 1015.2
20260506103817 43 335 13.0 21.0 0.00 0.08 0.08 73 1015.1
20260506102837 43 287 8.0 13.0 0.00 0.08 0.08 80 1015.4
20260506101817 43 125 3.0 6.0 0.00 0.08 0.08 84 1014.9
20260506100817 42 246 1.0 5.0 0.02 0.08 0.08 86 1014.7
20260506095816 42 267 9.0 13.0 0.06 0.08 0.08 86 1014.6
20260506094837 43 300 7.0 10.0 0.08 0.08 0.08 87 1014.8
20260506093816 43 242 11.0 16.0 0.08 0.08 0.08 84 1014.6